Pelham, NH (03076)

11:24 AM EDT on September 05, 2015 (GMT -0400)
Independence Dr | | Change Station
CLOSE
Current Station
Personal Weather Station
Location: Pelham, NH
Elevation: 180 ft
Nearby Weather Stations

Elev 180 ft 42.74 °N, 71.34 °W | Updated 3 seconds ago

Clear
Clear
76.1 °F
Feels Like 78 °F
N
1.0
Wind Variable Wind from WNW
Gusts 4.0 mph

Today
High -- | Low -- °F
--% Chance of Precip.
Yesterday
High -- | Low -- °F
Precip. -- in
6:14 AM 7:13 PM
Waning Gibbous, 48% visible
Pressure 30.33 in
Visibility 10.0 miles
Clouds Clear
Heat Index 78 °F
Dew Point 56 °F
Humidity 50%
Rainfall 0.00 in
Snow Depth Not available.
UV 5.6 out of 12
Pollen 8.50 out of 12
Air Quality Not available.
Flu Activity Not available.
METAR KASH 051451Z VRB04KT 10SM CLR 23/11 A3030 RMK AO2 SLP271 T02330111 58010
Pressure 30.33 in
Visibility 10.0 miles
Clouds Clear
Heat Index 78 °F
Dew Point 56 °F
Humidity 50%
Rainfall 0.00 in
Snow Depth Not available.
UV 5.6 out of 12
Pollen 8.50 out of 12
Air Quality Not available.
Flu Activity Not available.
METAR KASH 051451Z VRB04KT 10SM CLR 23/11 A3030 RMK AO2 SLP271 T02330111 58010

10-Day Weather Forecast

×

Almanac

Astronomy

Sep. 05, 2015 Rise Set
Actual Time
Civil Twilight
Nautical Twilight
Astronomical Twilight
Moon
Length of Visible Light
Length of Day
Tomorrow will be .
, % of the Moon is Illuminated

Today's Extremes

State Highs State Lows

Community

WunderPhotos

Upload Photos

1,852,482 photos uploaded!

WunderBlogs® & News

Nearby

Air Quality

  Air Quality AQ Index Pollutant
Not available.

Snow Depth

Station Depth Elevation

Earthquake Activity

City Distance Mag. Time & Date
Minimum magnitude displayed is 2.5.

Coastal Water Temperatures

Place Temperature

Stations

Nearby Weather Stations

Station Location Temp. Windchill Dew Point Humidity Wind Precip. Elev Updated Type